Wind_Speed
17 13 9 7 3 3 5 9 9 7 5 4 4 5 6 5 6 6 7 8 7 7 8 10 12 14 15 17 19 20 21 22 20 18 17 18 19 20 20 19 19 20 20 20
15 12 10 9 8 7 8 9 7 5 3 2 2 3 4 4 5 6 7 9 10 11 11 12 13 15 16 17 18 20 20 21 20 18 17 18 19 20 20 20 20 20 20 20
16 12 11 11 11 11 10 9 6 4 2 1 0 2 2 2 2 4 5 7 8 9 9 10 11 13 15 15 17 18 19 18 18 18 18 19 19 20 21 22 22 21 21 21
16 14 13 13 12 11 10 9 9 7 6 5 4 4 3 1 0 1 2 2 3 4 5 6 8 10 11 12 14 16 17 17 18 19 19 19 20 22 22 23 23 22 21 20
15 14 12 11 11 10 11 10 10 9 7 6 6 5 4 4 3 2 4 3 2 1 1 3 6 8 10 12 14 16 17 18 19 19 20 20 21 22 22 22 22 21 20 19
13 12 12 11 10 10 10 9 9 8 8 7 7 6 6 6 6 5 5 5 4 2 2 4 7 9 11 13 15 16 17 18 18 19 20 21 21 21 21 21 20 20 19 19
11 10 10 10 9 9 9 9 8 8 8 7 8 7 8 8 7 6 6 5 4 4 6 7 9 11 12 14 16 17 18 18 19 21 21 21 21 21 20 19 18 18 18 18
10 8 8 8 8 9 10 9 8 8 8 8 8 9 8 8 7 6 5 5 6 7 8 10 11 12 14 15 16 17 18 19 20 20 20 20 20 19 18 18 17 17 17 18
10 8 7 7 8 8 8 8 8 8 8 9 9 8 8 8 7 6 7 8 9 10 11 11 12 13 14 15 16 17 18 19 19 19 19 18 18 17 17 17 17 17 18 18
9 8 6 6 7 7 8 7 7 7 8 8 7 7 7 7 7 7 8 10 11 11 12 12 13 14 15 16 17 17 18 18 17 17 16 16 15 15 15 16 16 16 17 18
9 7 6 6 6 6 7 7 8 8 9 8 8 7 6 6 7 8 9 10 11 12 13 14 14 15 15 16 16 16 16 15 15 15 14 14 13 14 14 14 14 15 15 16
10 6 5 5 5 7 8 8 7 8 8 8 8 7 6 6 7 8 10 11 12 13 14 14 15 16 16 16 15 15 15 14 14 14 13 13 13 13 13 13 13 13 13 13
13 7 5 5 6 7 7 7 7 8 8 7 6 5 5 5 7 9 11 12 13 14 15 15 16 16 16 16 15 15 15 15 14 14 14 14 14 13 12 12 12 12 12 12
16 9 6 6 7 7 7 7 7 6 6 5 4 4 4 5 7 9 11 12 14 15 16 16 16 16 16 16 16 16 16 15 15 15 15 15 15 14 14 13 12 12 12 11
19 12 7 6 7 7 6 7 6 5 4 3 3 2 2 5 7 9 10 12 14 15 16 16 16 16 16 16 16 16 16 16 16 16 16 16 16 16 16 15 15 14 13 12
21 15 9 5 6 6 5 5 4 3 3 3 2 1 1 3 6 8 10 11 13 14 15 15 16 16 16 16 17 17 17 18 18 18 18 18 18 18 18 18 17 16 15 14
22 18 12 6 4 4 3 3 3 4 4 4 4 3 3 3 4 6 8 10 12 13 14 14 15 15 16 16 17 17 18 18 18 19 19 19 20 20 20 20 19 19 18 17
20 19 15 9 5 1 3 4 5 6 6 6 7 7 6 5 5 5 7 9 10 11 12 13 13 14 14 15 16 16 17 17 18 18 18 19 19 20 20 21 21 21 21 20
17 18 16 12 7 4 2 4 6 8 9 9 9 9 9 8 6 5 5 7 8 9 10 11 12 12 13 14 15 15 16 16 16 17 17 17 18 18 19 19 20 20 20 21
14 15 16 14 11 8 6 5 7 9 11 12 11 11 10 10 9 7 5 5 6 7 8 9 10 10 11 12 13 14 14 15 15 15 15 15 16 16 17 18 18 19 19 20
10 12 13 15 14 12 10 8 8 9 11 13 13 13 13 12 11 9 7 5 5 6 6 7 8 8 9 10 11 12 13 13 14 14 14 14 15 15 15 16 16 17 17 18
9 10 12 13 14 14 14 13 11 11 11 12 13 14 14 14 13 11 9 8 6 6 6 6 7 7 7 8 9 10 11 12 13 13 13 14 14 15 15 15 15 15 15 16
10 10 11 12 13 14 15 15 15 14 13 11 12 14 15 15 15 14 12 11 9 7 6 6 6 6 6 6 7 7 9 10 11 12 13 14 14 15 15 15 15 15 15 15
13 12 12 12 13 15 16 16 16 17 16 13 11 11 13 15 16 16 15 13 12 10 9 8 7 7 6 6 5 5 6 7 9 10 11 13 14 14 14 14 14 14 14 14
17 15 14 14 15 15 16 17 17 17 17 16 14 11 12 13 15 17 17 16 15 13 12 10 9 8 8 7 6 5 5 6 7 9 10 11 12 13 12 12 12 13 13 13
21 19 18 17 17 17 17 18 18 18 18 17 16 14 12 12 14 16 17 18 18 16 15 13 12 11 10 9 8 7 7 6 7 8 9 10 11 12 12 11 11 12 12 12
26 23 22 21 20 19 20 20 20 20 20 19 18 16 15 13 12 15 16 18 19 19 18 17 16 14 13 12 11 9 9 8 8 9 9 10 11 11 11 11 10 11 11 11
Wind_Direction
356 0 16 21 54 148 160 166 164 174 213 259 295 303 309 299 291 284 271 267 267 254 245 245 247 252 259 265 269 274 277 281 284 283 287 292 293 292 291 288 286 284 282 278
14 23 38 49 82 111 115 134 146 166 195 270 300 298 301 296 275 260 256 259 261 262 261 260 262 266 269 271 274 276 278 285 289 293 293 295 295 295 294 293 290 286 283 280
28 39 51 61 76 96 112 120 130 132 122 74 71 10 330 303 265 247 249 252 254 255 257 262 266 270 273 275 278 284 286 291 298 299 298 299 299 298 297 296 293 289 284 280
41 51 59 64 76 86 97 105 108 109 115 113 101 72 65 63 34 206 200 213 229 243 258 266 270 270 274 281 286 289 293 296 299 301 301 300 300 299 298 296 293 291 286 281
44 49 54 62 70 84 94 97 105 103 106 103 96 83 74 71 71 91 122 127 134 160 265 282 285 286 288 289 290 292 294 295 297 298 300 300 300 300 299 297 294 291 287 282
46 46 56 66 74 85 93 98 101 102 101 95 98 90 86 86 88 93 96 95 82 41 333 310 302 298 296 295 295 298 299 299 300 301 302 302 302 301 300 298 294 291 288 285
48 52 58 71 81 88 93 98 98 104 108 108 106 99 96 90 83 75 65 54 31 2 337 323 316 312 309 307 306 306 305 305 305 305 304 304 303 303 301 298 295 291 289 286
51 59 67 77 88 92 96 95 99 104 106 112 112 104 96 87 77 64 45 23 3 348 338 330 325 322 319 316 313 311 309 308 307 307 306 306 305 304 302 300 297 294 292 290
49 61 77 87 94 100 105 97 97 108 111 115 116 109 98 85 69 48 24 6 356 348 343 338 332 329 326 323 319 316 313 312 310 309 308 308 308 307 305 303 301 299 297 294
42 53 74 97 98 108 113 108 99 107 120 125 120 110 96 80 59 36 15 3 356 352 349 346 341 337 333 329 325 321 318 317 318 317 316 315 313 312 311 310 308 305 304 300
34 46 71 102 109 110 123 115 107 110 125 130 122 109 92 68 47 28 14 6 2 359 354 350 347 343 340 336 333 330 329 328 330 331 332 330 327 324 321 319 317 316 315 312
29 43 68 96 117 118 126 120 117 122 132 128 119 104 81 54 33 21 16 11 5 0 357 355 354 352 350 348 347 346 346 346 347 349 349 347 343 339 335 333 331 329 328 327
27 43 67 101 124 134 131 126 119 128 134 130 118 99 69 43 27 20 16 11 6 3 1 1 1 1 0 1 2 4 5 6 6 6 6 4 3 360 355 350 347 346 346 345
30 44 69 110 127 136 134 132 128 130 136 135 123 99 61 35 23 20 15 10 7 5 5 6 8 9 10 13 16 18 20 21 22 21 19 18 18 18 16 13 10 9 8 8
31 45 71 116 134 136 138 141 139 139 145 151 143 115 53 27 19 16 12 9 9 8 9 12 15 17 21 24 27 29 30 32 31 30 30 30 29 28 28 28 28 28 28 28
31 42 61 99 141 141 143 150 155 166 177 190 194 201 353 8 10 10 9 8 8 10 11 15 20 24 28 33 36 36 37 38 38 37 36 35 35 34 35 36 37 38 39 40
30 37 48 68 130 165 172 191 202 210 225 235 241 256 273 313 344 357 3 5 7 10 14 18 24 28 32 35 37 38 39 40 39 38 38 38 39 40 41 42 43 45 47 48
27 33 40 49 60 154 214 233 240 241 245 250 256 261 266 276 299 329 350 359 4 9 14 19 25 30 34 36 38 38 39 39 37 37 38 40 42 43 44 46 48 50 51 50
21 26 29 33 33 17 291 265 256 251 253 256 259 260 259 263 272 291 322 345 355 2 9 15 23 29 34 37 38 37 36 35 35 36 38 40 43 45 46 47 48 50 51 51
10 18 22 24 22 11 348 311 282 269 262 259 262 261 258 257 260 268 288 320 338 348 359 8 15 23 30 35 36 35 33 33 33 34 36 39 41 43 44 45 46 47 48 49
348 359 8 14 16 13 2 343 320 300 280 267 264 262 256 254 255 259 268 286 307 326 342 354 3 12 21 27 31 31 31 31 30 32 34 36 38 39 40 40 40 41 42 42
319 330 341 352 360 5 4 357 343 327 306 279 269 266 258 252 252 254 258 266 279 299 319 334 345 354 6 17 24 27 28 28 28 30 32 31 32 33 34 35 35 36 36 36
288 304 316 326 335 344 351 356 357 349 336 308 280 269 261 255 252 252 253 255 262 273 289 306 321 330 342 358 11 19 22 23 24 27 28 27 27 28 29 31 32 32 33 34
269 280 292 303 313 321 329 338 345 351 351 342 312 283 267 258 253 252 252 251 253 259 267 280 295 306 315 328 344 357 6 11 14 17 19 19 20 21 23 25 27 27 27 28
258 266 276 285 293 302 310 317 326 335 343 347 340 315 286 268 258 255 254 253 251 251 256 263 274 285 293 301 311 323 335 347 355 1 4 5 6 8 10 13 15 17 20 20
253 259 266 273 279 285 292 299 307 315 324 333 339 337 319 288 267 259 257 254 252 250 250 254 261 270 278 283 289 296 304 314 326 337 345 349 352 354 357 0 4 7 11 13
250 255 260 265 270 276 281 286 292 298 305 313 321 327 330 319 290 268 259 256 253 251 249 250 254 260 267 273 276 281 287 294 303 314 325 333 338 341 345 351 356 359 2 6
Height
5746 5742 5740 5740 5740 5743 5746 5749 5753 5757 5759 5762 5764 5765 5766 5766 5767 5768 5769 5771 5773 5775 5778 5780 5781 5783 5783 5783 5783 5782 5780 5778 5776 5774 5774 5773 5772 5771 5770 5768 5767 5766 5765 5764
5749 5746 5745 5744 5744 5745 5748 5751 5754 5757 5760 5762 5763 5764 5765 5765 5766 5767 5768 5769 5770 5772 5773 5775 5776 5777 5778 5778 5778 5776 5774 5773 5771 5770 5769 5768 5767 5765 5764 5763 5762 5760 5759 5758
5754 5751 5750 5749 5749 5750 5751 5753 5756 5758 5761 5762 5763 5764 5765 5765 5765 5766 5766 5767 5768 5769 5771 5771 5772 5773 5773 5773 5772 5771 5769 5768 5767 5766 5765 5763 5762 5760 5758 5756 5755 5753 5752 5752
5758 5757 5755 5756 5754 5754 5755 5757 5758 5760 5762 5763 5764 5765 5765 5765 5765 5765 5766 5767 5768 5768 5769 5770 5770 5771 5771 5770 5769 5767 5766 5765 5763 5761 5760 5758 5756 5754 5752 5749 5747 5746 5745 5745
5762 5761 5759 5759 5758 5758 5759 5760 5761 5763 5764 5765 5766 5766 5767 5767 5767 5767 5767 5768 5769 5769 5770 5770 5769 5769 5769 5768 5767 5765 5763 5762 5760 5757 5755 5753 5751 5748 5746 5743 5741 5739 5739 5738
5766 5764 5763 5764 5762 5762 5764 5764 5764 5765 5766 5766 5767 5768 5769 5768 5769 5769 5769 5769 5770 5770 5770 5769 5769 5768 5767 5766 5764 5762 5760 5758 5755 5753 5751 5748 5745 5742 5740 5737 5735 5733 5732 5732
5768 5767 5766 5766 5765 5766 5767 5768 5767 5767 5767 5768 5769 5770 5771 5770 5771 5771 5771 5771 5770 5770 5770 5769 5768 5767 5765 5763 5761 5758 5756 5753 5751 5748 5745 5742 5739 5736 5734 5732 5730 5728 5727 5726
5771 5770 5771 5768 5768 5769 5769 5768 5768 5769 5770 5770 5771 5772 5773 5773 5773 5774 5773 5773 5772 5771 5770 5768 5767 5765 5763 5760 5758 5755 5752 5750 5747 5744 5740 5737 5734 5731 5729 5727 5725 5723 5721 5720
5773 5773 5771 5770 5769 5769 5770 5770 5771 5771 5772 5773 5774 5775 5775 5775 5775 5775 5775 5774 5772 5770 5769 5767 5765 5763 5761 5758 5755 5752 5749 5746 5743 5739 5736 5733 5730 5727 5724 5722 5720 5718 5716 5714
5773 5772 5771 5770 5770 5770 5771 5772 5772 5773 5774 5775 5776 5777 5777 5777 5777 5777 5776 5774 5772 5770 5768 5766 5764 5761 5758 5756 5752 5749 5746 5742 5739 5735 5731 5728 5726 5723 5721 5718 5716 5713 5711 5709
5774 5772 5771 5771 5771 5771 5772 5773 5774 5774 5775 5777 5777 5778 5778 5778 5778 5777 5776 5774 5772 5770 5768 5765 5762 5760 5757 5753 5750 5747 5743 5739 5736 5732 5728 5725 5723 5720 5717 5715 5712 5710 5707 5704
5775 5773 5772 5772 5772 5772 5773 5774 5775 5776 5777 5778 5779 5779 5779 5779 5778 5777 5776 5774 5772 5770 5767 5765 5762 5758 5755 5751 5748 5745 5741 5737 5733 5730 5727 5724 5721 5718 5715 5712 5710 5707 5704 5701
5775 5773 5772 5772 5772 5773 5775 5776 5777 5777 5778 5779 5779 5780 5780 5780 5779 5778 5776 5774 5772 5770 5767 5764 5761 5757 5754 5750 5747 5744 5740 5736 5733 5729 5726 5723 5720 5717 5714 5711 5708 5705 5702 5699
5777 5774 5773 5773 5773 5774 5776 5777 5778 5778 5779 5779 5780 5780 5780 5780 5779 5778 5777 5775 5773 5770 5767 5764 5761 5758 5754 5751 5747 5744 5741 5737 5734 5730 5727 5724 5720 5717 5714 5711 5708 5705 5702 5699
5780 5776 5775 5775 5775 5776 5777 5778 5779 5779 5780 5780 5780 5780 5780 5780 5779 5778 5777 5775 5773 5771 5768 5765 5762 5758 5755 5752 5749 5746 5742 5739 5736 5732 5729 5726 5722 5719 5716 5713 5710 5707 5704 5701
5783 5779 5777 5777 5777 5778 5778 5779 5779 5779 5780 5780 5780 5780 5780 5780 5779 5778 5777 5776 5774 5772 5769 5766 5763 5760 5757 5754 5751 5748 5745 5742 5738 5735 5732 5728 5725 5722 5718 5715 5712 5709 5706 5704
5786 5782 5780 5779 5779 5779 5779 5779 5779 5779 5779 5780 5780 5780 5780 5779 5779 5778 5777 5776 5774 5772 5770 5768 5765 5762 5759 5756 5753 5750 5747 5745 5742 5739 5735 5732 5729 5725 5722 5719 5716 5713 5710 5708
5789 5785 5782 5780 5779 5779 5779 5779 5778 5778 5778 5778 5778 5779 5779 5779 5778 5778 5777 5776 5775 5773 5771 5769 5767 5764 5761 5758 5756 5753 5751 5748 5745 5742 5740 5736 5733 5730 5727 5724 5721 5718 5715 5713
5791 5787 5784 5782 5780 5779 5778 5778 5777 5777 5777 5776 5777 5777 5777 5777 5777 5777 5777 5776 5775 5774 5772 5770 5768 5766 5763 5761 5758 5756 5754 5751 5749 5746 5743 5740 5738 5735 5732 5729 5726 5723 5721 5718
5792 5789 5785 5783 5781 5779 5778 5776 5776 5775 5774 5774 5775 5775 5775 5776 5776 5776 5776 5775 5775 5774 5773 5771 5769 5767 5765 5763 5761 5758 5756 5754 5752 5749 5747 5744 5741 5739 5736 5734 5731 5729 5726 5723
5791 5789 5786 5783 5781 5778 5776 5775 5774 5772 5771 5771 5772 5772 5772 5773 5774 5774 5774 5774 5774 5773 5772 5771 5770 5768 5766 5764 5762 5760 5758 5756 5754 5752 5750 5747 5745 5742 5740 5738 5735 5733 5730 5728
5789 5787 5785 5783 5780 5778 5775 5773 5772 5770 5768 5768 5768 5769 5769 5770 5771 5772 5772 5772 5772 5772 5772 5771 5770 5768 5767 5765 5763 5762 5760 5758 5756 5754 5752 5750 5748 5746 5743 5741 5738 5736 5734 5731
5786 5784 5783 5781 5779 5777 5774 5772 5770 5768 5766 5765 5765 5765 5766 5767 5768 5769 5770 5770 5770 5771 5770 5770 5769 5768 5767 5766 5764 5763 5761 5760 5758 5756 5754 5752 5750 5748 5746 5743 5741 5739 5737 5734
5781 5780 5779 5778 5776 5774 5772 5771 5768 5767 5765 5763 5761 5761 5762 5762 5764 5765 5766 5767 5768 5768 5768 5768 5768 5767 5766 5766 5764 5763 5762 5760 5759 5757 5756 5754 5752 5750 5748 5746 5744 5741 5739 5737
5775 5775 5775 5774 5772 5771 5770 5768 5766 5764 5763 5761 5759 5758 5758 5758 5759 5761 5762 5763 5764 5765 5766 5766 5766 5766 5765 5765 5764 5763 5762 5761 5759 5758 5757 5755 5753 5751 5749 5747 5745 5743 5741 5739
5768 5769 5769 5768 5767 5767 5765 5764 5763 5762 5760 5759 5757 5756 5755 5754 5755 5756 5757 5758 5760 5761 5762 5763 5763 5763 5763 5763 5763 5762 5761 5760 5759 5758 5757 5755 5754 5752 5750 5748 5746 5744 5742 5740
5760 5761 5762 5762 5761 5761 5760 5759 5758 5758 5756 5755 5754 5753 5752 5751 5751 5751 5752 5753 5754 5756 5758 5759 5760 5760 5760 5760 5760 5760 5760 5759 5758 5757 5756 5755 5753 5752 5750 5748 5746 5744 5742 5740